Regional Weather Roundup
Issued by NWS Northern Indiana

Home | Current Version | Previous Version | Graphics & Text | Print | Product List | Glossary On
Versions: 1 2 3 4 5 6 7 8 9 10 11 12 13 14 15 16 17 18 19 20 21 22 23 24 25 26 27 28 29 30 31 32 33 34 35 36 37 38 39 40 41 42 43 44 45 46 47 48 49 50
759
ASUS43 KIWX 291910
RWRIWX

KIWX WEATHER ROUNDUP
NATIONAL WEATHER SERVICE NORTHERN INDIANA
300 PM EDT SUN MAY 29 2016

NOTE: "FAIR" INDICATES FEW OR NO CLOUDS BELOW 12,000 FEET WITH NO
SIGNIFICANT WEATHER AND/OR OBSTRUCTIONS TO VISIBILITY.

* THESE STATIONS ARE NOT UNDER NWS QUALITY CONTROL. THEY ALSO MAY NOT
  REPORT WEATHER SUCH AS PRECIPITATION OR FOG.

INZ001>027-292000-
NORTHERN INDIANA

CITY           SKY/WX    TMP DP  RH WIND       PRES   REMARKS
GARY*          MOSUNNY   81  64  57 W21       30.03R
VALPARAISO     MOSUNNY   83  58  42 W20       30.02S
MICHIGAN CITY* CLOUDY    75  59  57 W7        30.02R
LAPORTE*       MOSUNNY   84  56  38 W17G29    30.02S
KNOX*            N/A     84  37  18 SW17G28     N/A
SOUTH BEND     PTSUNNY   83  56  39 SW17G28   30.00F
ELKHART*       MOSUNNY   84  63  48 MISG      30.01S
GOSHEN         MOSUNNY   85  54  34 SW18G28   30.01S
MONTICELLO*    PTSUNNY   84  47  27 W14G23    30.02F
LOGANSPORT*    MOSUNNY   84  54  34 W15G25    30.04F
ROCHESTER*     SUNNY     86  54  32 SW13G24   30.03S
WARSAW*        MOSUNNY   86  54  32 W14G20    30.02S
ANGOLA*          N/A     88  82  84 SW16      30.01S HX 108
FORT WAYNE     PTSUNNY   88  60  38 W17G25    30.02S
HUNTINGTON*    MOSUNNY   85  61  44 W14G21    30.02S
MARION*        PTSUNNY   86  58  39 W18       30.04S

$$
INZ028>050-292000-
CENTRAL INDIANA

CITY           SKY/WX    TMP DP  RH WIND       PRES   REMARKS
LAFAYETTE      MOSUNNY   83  56  39 SW12G20   30.03F
KOKOMO*        PTSUNNY   84  61  45 SW16      30.03F
MUNCIE*        PTSUNNY   86  59  39 SW12      30.04F
INDIANAPOLIS   CLOUDY    84  63  49 SW12G20   30.04F

$$
MIZ043>046-050>051-056>058-064>065-071>073-077>080-292000-
SOUTHWEST LOWER MICHIGAN

CITY           SKY/WX    TMP DP  RH WIND       PRES   REMARKS
BATTLE CREEK   PTSUNNY   80  57  45 W16       30.00S
BENTON HARBOR  SUNNY     77  60  55 W14       30.01R
COLDWATER*     MOSUNNY   82  57  43 W14G24    30.00S
HILLSDALE*     MOSUNNY   84  53  34 W14       30.01S
HOLLAND        PTSUNNY   78  61  55 SW18G24   30.00S
GRAND RAPIDS   MOSUNNY   82  56  40 W24G31    29.98S
KALAMAZOO      MOSUNNY   82  56  40 SW15      29.99F
STURGIS*       PTSUNNY   83  57  41 W15G26    30.00S
THREE RIVERS*  PTSUNNY   83  54  37 W9G17     30.00S

$$
OHZ001>008-015>018-024>025-292000-
NORTHWEST OHIO

CITY           SKY/WX    TMP DP  RH WIND       PRES   REMARKS
WAUSEON*         N/A     90  88  94 SW20G26   29.99F HX 124
DEFIANCE       MOSUNNY   88  59  37 SW12G23   29.99F
FINDLAY        MOSUNNY   84  63  49 S15       30.02F
TOLEDO EXPRESS MOSUNNY   88  62  41 SW9       29.99F
TOLEDO METCALF MOSUNNY   85  63  47 S17G24    30.00F
LIMA           PTSUNNY   82  66  58 SW7       30.03F

$$
AND FOR LAKE MICHIGAN COASTAL AND OPEN LAKE BUOY OBSERVATIONS

STATION/POSITION TEMP    WIND        PRES    VSBY  WAVE
                 AIR SEA DIR/SP/G                  HT/PER
                 (F)     (DEG/KT/KT) (MB)    (MI)  (FT/S)
CALUMET HARBOR    79     230/  8/ 19 1015.7R
MICHIGAN CITY     68     240/ 18/ 19   N/A
BURNS HARBOR      73     250/ 18/ 24 1016.6R
SAINT JOSEPH      69     210/  6/  8 1017.3R
SOUTH LAKE BUOY   57 51  230/ 12/ 12 1015.2R         1/ 3
4 MI NW BRIDGMAN  66 62  260/  8/ 10   N/A           1
MICHIGAN CITY     65 57  280/ 10/ 14   N/A           1/ 3

$$
&&




USA.gov is the U.S. government's official web portal to all federal, state and local government web resources and services.